QPF
0.00 0.00 0.00 0.00 0.00 0.00 0.00 0.01 0.01 0.01 0.01 0.00 0.00 0.00 0.00 0.00 0.00 0.00 0.00 0.00 0.00 0.00 0.00 0.00 0.00 0.00 0.00 0.00 0.01 0.01 0.01 0.01 0.02 0.02 0.03 0.04 0.05 0.05
0.00 0.00 0.00 0.00 0.00 0.00 0.01 0.01 0.01 0.01 0.01 0.00 0.00 0.00 0.00 0.00 0.00 0.00 0.00 0.00 0.00 0.00 0.00 0.00 0.00 0.00 0.00 0.00 0.01 0.01 0.01 0.02 0.02 0.03 0.03 0.04 0.05 0.05
0.00 0.00 0.01 0.01 0.01 0.01 0.01 0.01 0.01 0.01 0.02 0.01 0.01 0.01 0.01 0.01 0.01 0.01 0.00 0.00 0.00 0.00 0.00 0.00 0.00 0.00 0.00 0.01 0.01 0.01 0.02 0.02 0.02 0.02 0.03 0.04 0.04 0.05
0.01 0.01 0.02 0.02 0.02 0.02 0.01 0.01 0.01 0.02 0.03 0.03 0.02 0.02 0.02 0.01 0.01 0.00 0.00 0.00 0.00 0.00 0.00 0.00 0.00 0.00 0.01 0.01 0.01 0.01 0.01 0.01 0.02 0.02 0.03 0.03 0.03 0.03
0.01 0.02 0.02 0.03 0.03 0.02 0.02 0.03 0.04 0.05 0.05 0.05 0.03 0.02 0.02 0.01 0.01 0.00 0.00 0.00 0.00 0.00 0.00 0.00 0.00 0.00 0.00 0.01 0.01 0.01 0.01 0.02 0.02 0.02 0.02 0.03 0.03 0.03
0.03 0.02 0.02 0.02 0.02 0.03 0.04 0.05 0.05 0.05 0.04 0.04 0.04 0.03 0.02 0.01 0.01 0.01 0.01 0.01 0.00 0.00 0.00 0.00 0.00 0.01 0.01 0.01 0.01 0.01 0.01 0.01 0.02 0.02 0.02 0.03 0.03 0.03
0.02 0.01 0.01 0.01 0.02 0.04 0.05 0.05 0.05 0.05 0.04 0.03 0.03 0.02 0.01 0.01 0.01 0.00 0.00 0.00 0.00 0.00 0.00 0.01 0.01 0.01 0.01 0.01 0.01 0.01 0.01 0.01 0.02 0.02 0.02 0.02 0.03 0.03
0.01 0.01 0.01 0.02 0.03 0.04 0.04 0.03 0.03 0.03 0.02 0.02 0.01 0.01 0.01 0.01 0.01 0.00 0.00 0.00 0.00 0.00 0.01 0.00 0.00 0.00 0.00 0.00 0.00 0.01 0.01 0.01 0.01 0.02 0.02 0.02 0.02 0.02
0.01 0.01 0.02 0.03 0.04 0.03 0.03 0.02 0.02 0.01 0.01 0.01 0.01 0.01 0.01 0.01 0.01 0.00 0.00 0.00 0.00 0.00 0.00 0.00 0.00 0.00 0.00 0.00 0.00 0.00 0.00 0.01 0.01 0.01 0.01 0.01 0.02 0.02
0.02 0.02 0.03 0.03 0.03 0.02 0.02 0.01 0.01 0.01 0.01 0.01 0.01 0.01 0.00 0.00 0.00 0.00 0.00 0.01 0.01 0.00 0.00 0.00 0.00 0.00 0.00 0.00 0.00 0.00 0.00 0.00 0.01 0.01 0.01 0.01 0.01 0.01
0.02 0.03 0.02 0.02 0.02 0.02 0.01 0.01 0.01 0.01 0.01 0.01 0.01 0.01 0.00 0.01 0.01 0.01 0.01 0.01 0.01 0.01 0.01 0.01 0.01 0.00 0.00 0.00 0.00 0.00 0.00 0.00 0.00 0.01 0.01 0.01 0.01 0.01
0.02 0.02 0.02 0.02 0.02 0.02 0.01 0.01 0.01 0.01 0.01 0.01 0.01 0.01 0.01 0.01 0.01 0.01 0.01 0.01 0.01 0.01 0.01 0.01 0.01 0.00 0.00 0.00 0.00 0.00 0.00 0.00 0.00 0.00 0.00 0.00 0.00 0.00
0.02 0.01 0.01 0.02 0.02 0.02 0.01 0.01 0.01 0.01 0.01 0.01 0.01 0.01 0.00 0.00 0.01 0.00 0.00 0.01 0.01 0.01 0.01 0.01 0.01 0.00 0.00 0.00 0.00 0.00 0.00 0.00 0.00 0.00 0.00 0.00 0.00 0.00
0.02 0.01 0.01 0.02 0.02 0.02 0.01 0.01 0.01 0.01 0.01 0.01 0.01 0.01 0.00 0.00 0.00 0.00 0.00 0.00 0.00 0.00 0.00 0.00 0.00 0.00 0.01 0.01 0.00 0.00 0.00 0.00 0.00 0.00 0.00 0.00 0.00 0.00
0.01 0.02 0.02 0.02 0.02 0.02 0.02 0.02 0.01 0.01 0.01 0.01 0.01 0.01 0.00 0.00 0.00 0.00 0.00 0.00 0.00 0.00 0.00 0.00 0.00 0.00 0.01 0.01 0.00 0.00 0.00 0.00 0.00 0.00 0.00 0.00 0.00 0.00
0.01 0.02 0.02 0.02 0.02 0.02 0.02 0.02 0.01 0.01 0.01 0.01 0.01 0.01 0.00 0.00 0.00 0.00 0.00 0.00 0.00 0.00 0.00 0.00 0.00 0.00 0.00 0.00 0.00 0.00 0.00 0.00 0.00 0.00 0.00 0.00 0.00 0.00
0.02 0.01 0.01 0.02 0.02 0.02 0.01 0.01 0.01 0.01 0.01 0.01 0.01 0.00 0.00 0.00 0.00 0.00 0.00 0.00 0.00 0.00 0.00 0.00 0.00 0.00 0.00 0.00 0.00 0.00 0.00 0.00 0.00 0.00 0.00 0.00 0.00 0.00
0.02 0.02 0.02 0.02 0.02 0.01 0.01 0.01 0.01 0.01 0.01 0.01 0.01 0.00 0.00 0.00 0.00 0.00 0.00 0.00 0.00 0.00 0.00 0.00 0.00 0.00 0.00 0.00 0.00 0.00 0.00 0.00 0.00 0.00 0.00 0.00 0.00 0.00
0.02 0.02 0.02 0.02 0.02 0.01 0.01 0.01 0.01 0.01 0.01 0.01 0.01 0.00 0.00 0.00 0.00 0.00 0.00 0.00 0.00 0.00 0.00 0.00 0.00 0.00 0.00 0.00 0.00 0.00 0.00 0.00 0.00 0.00 0.00 0.00 0.00 0.00
0.01 0.01 0.01 0.01 0.02 0.02 0.02 0.02 0.02 0.02 0.01 0.01 0.01 0.00 0.00 0.00 0.00 0.00 0.00 0.00 0.00 0.00 0.00 0.00 0.00 0.01 0.01 0.01 0.00 0.00 0.00 0.00 0.00 0.00 0.00 0.00 0.00 0.00
0.01 0.01 0.01 0.01 0.02 0.02 0.02 0.02 0.02 0.01 0.01 0.01 0.01 0.00 0.00 0.00 0.00 0.00 0.00 0.00 0.00 0.00 0.00 0.00 0.00 0.00 0.00 0.00 0.00 0.00 0.00 0.00 0.00 0.00 0.00 0.01 0.00 0.00
0.01 0.01 0.01 0.01 0.02 0.02 0.02 0.02 0.01 0.01 0.01 0.01 0.00 0.00 0.00 0.00 0.00 0.00 0.00 0.00 0.00 0.00 0.00 0.00 0.00 0.00 0.00 0.00 0.00 0.00 0.00 0.00 0.00 0.00 0.00 0.01 0.02 0.02
0.00 0.01 0.01 0.01 0.02 0.02 0.02 0.02 0.01 0.01 0.00 0.00 0.00 0.00 0.00 0.00 0.00 0.00 0.00 0.00 0.00 0.00 0.00 0.00 0.00 0.00 0.00 0.00 0.00 0.00 0.00 0.00 0.00 0.00 0.00 0.00 0.00 0.01
MSLP
1017.62 1018.06 1018.44 1018.75 1018.98 1019.11 1019.16 1019.15 1019.09 1019.01 1018.92 1018.84 1018.77 1018.71 1018.64 1018.55 1018.43 1018.28 1018.09 1017.88 1017.65 1017.40 1017.15 1016.92 1016.69 1016.48 1016.28 1016.09 1015.90 1015.72 1015.53 1015.33 1015.11 1014.86 1014.58 1014.27 1013.94 1013.59
1016.89 1017.27 1017.61 1017.90 1018.12 1018.27 1018.37 1018.41 1018.42 1018.41 1018.40 1018.38 1018.36 1018.33 1018.28 1018.20 1018.08 1017.92 1017.72 1017.50 1017.25 1017.00 1016.75 1016.51 1016.28 1016.06 1015.85 1015.65 1015.44 1015.22 1014.99 1014.74 1014.46 1014.15 1013.82 1013.46 1013.09 1012.73
1016.09 1016.43 1016.74 1017.01 1017.24 1017.42 1017.57 1017.69 1017.78 1017.86 1017.93 1017.98 1018.02 1018.03 1018.01 1017.94 1017.82 1017.66 1017.46 1017.23 1016.98 1016.72 1016.47 1016.23 1016.00 1015.78 1015.56 1015.33 1015.08 1014.82 1014.53 1014.21 1013.87 1013.50 1013.11 1012.71 1012.30 1011.92
1015.31 1015.61 1015.91 1016.18 1016.43 1016.66 1016.87 1017.07 1017.25 1017.42 1017.57 1017.70 1017.80 1017.86 1017.87 1017.83 1017.72 1017.57 1017.37 1017.14 1016.89 1016.64 1016.39 1016.14 1015.91 1015.67 1015.42 1015.15 1014.86 1014.54 1014.19 1013.80 1013.39 1012.96 1012.52 1012.07 1011.65 1011.25
1014.64 1014.94 1015.23 1015.52 1015.81 1016.09 1016.37 1016.64 1016.91 1017.17 1017.40 1017.61 1017.77 1017.88 1017.93 1017.91 1017.82 1017.68 1017.49 1017.27 1017.02 1016.77 1016.52 1016.27 1016.01 1015.74 1015.46 1015.14 1014.80 1014.41 1013.99 1013.54 1013.06 1012.58 1012.09 1011.61 1011.17 1010.76
1014.17 1014.49 1014.81 1015.13 1015.46 1015.80 1016.14 1016.49 1016.83 1017.16 1017.47 1017.74 1017.95 1018.11 1018.19 1018.20 1018.14 1018.01 1017.84 1017.62 1017.38 1017.13 1016.86 1016.59 1016.30 1016.00 1015.66 1015.29 1014.88 1014.42 1013.94 1013.42 1012.90 1012.36 1011.84 1011.35 1010.89 1010.47
1013.98 1014.34 1014.69 1015.06 1015.44 1015.82 1016.22 1016.63 1017.03 1017.41 1017.77 1018.09 1018.35 1018.54 1018.65 1018.69 1018.65 1018.54 1018.37 1018.16 1017.92 1017.66 1017.37 1017.07 1016.74 1016.38 1015.99 1015.55 1015.07 1014.56 1014.01 1013.45 1012.87 1012.31 1011.77 1011.26 1010.80 1010.38
1014.08 1014.49 1014.90 1015.32 1015.74 1016.17 1016.61 1017.05 1017.49 1017.91 1018.29 1018.64 1018.92 1019.13 1019.26 1019.31 1019.29 1019.19 1019.03 1018.83 1018.58 1018.29 1017.98 1017.64 1017.26 1016.85 1016.39 1015.90 1015.35 1014.78 1014.18 1013.57 1012.97 1012.38 1011.83 1011.32 1010.85 1010.43
1014.46 1014.93 1015.40 1015.86 1016.33 1016.79 1017.26 1017.71 1018.16 1018.58 1018.97 1019.32 1019.60 1019.81 1019.95 1020.01 1019.99 1019.90 1019.74 1019.53 1019.27 1018.97 1018.62 1018.24 1017.81 1017.34 1016.83 1016.27 1015.67 1015.05 1014.41 1013.77 1013.14 1012.54 1011.98 1011.46 1011.00 1010.57
1015.05 1015.59 1016.12 1016.62 1017.12 1017.61 1018.08 1018.53 1018.97 1019.38 1019.74 1020.06 1020.33 1020.52 1020.65 1020.70 1020.67 1020.58 1020.42 1020.20 1019.92 1019.60 1019.22 1018.80 1018.33 1017.81 1017.25 1016.64 1016.00 1015.34 1014.67 1014.00 1013.36 1012.74 1012.17 1011.65 1011.17 1010.73
1015.78 1016.38 1016.96 1017.51 1018.03 1018.52 1018.99 1019.43 1019.83 1020.20 1020.53 1020.81 1021.03 1021.20 1021.30 1021.33 1021.29 1021.18 1021.02 1020.79 1020.49 1020.15 1019.75 1019.30 1018.80 1018.24 1017.64 1016.99 1016.32 1015.62 1014.93 1014.24 1013.58 1012.95 1012.36 1011.82 1011.32 1010.86
1016.57 1017.23 1017.85 1018.43 1018.97 1019.47 1019.92 1020.33 1020.70 1021.02 1021.30 1021.52 1021.70 1021.81 1021.87 1021.88 1021.82 1021.70 1021.52 1021.28 1020.98 1020.62 1020.21 1019.74 1019.21 1018.63 1018.00 1017.33 1016.62 1015.90 1015.18 1014.47 1013.78 1013.13 1012.52 1011.95 1011.42 1010.92
1017.38 1018.08 1018.74 1019.35 1019.90 1020.40 1020.83 1021.21 1021.53 1021.81 1022.02 1022.19 1022.31 1022.38 1022.39 1022.36 1022.27 1022.13 1021.94 1021.70 1021.39 1021.03 1020.61 1020.13 1019.59 1018.99 1018.34 1017.65 1016.92 1016.17 1015.42 1014.68 1013.96 1013.27 1012.62 1012.02 1011.45 1010.91
1018.16 1018.91 1019.60 1020.23 1020.79 1021.28 1021.70 1022.05 1022.34 1022.56 1022.72 1022.83 1022.89 1022.91 1022.88 1022.81 1022.69 1022.53 1022.33 1022.08 1021.77 1021.41 1020.98 1020.49 1019.94 1019.34 1018.67 1017.95 1017.20 1016.42 1015.63 1014.85 1014.09 1013.36 1012.66 1012.01 1011.39 1010.81
1018.94 1019.72 1020.43 1021.08 1021.65 1022.14 1022.54 1022.87 1023.12 1023.29 1023.41 1023.47 1023.48 1023.44 1023.37 1023.26 1023.12 1022.94 1022.72 1022.46 1022.14 1021.77 1021.35 1020.85 1020.29 1019.67 1018.98 1018.24 1017.46 1016.64 1015.81 1014.98 1014.17 1013.38 1012.63 1011.93 1011.26 1010.63
1019.72 1020.52 1021.25 1021.90 1022.48 1022.96 1023.36 1023.66 1023.88 1024.03 1024.10 1024.12 1024.08 1024.01 1023.89 1023.75 1023.57 1023.37 1023.13 1022.85 1022.53 1022.15 1021.71 1021.21 1020.64 1019.99 1019.28 1018.50 1017.68 1016.82 1015.94 1015.06 1014.19 1013.35 1012.54 1011.78 1011.06 1010.38
1020.52 1021.32 1022.06 1022.72 1023.29 1023.76 1024.15 1024.44 1024.64 1024.76 1024.81 1024.79 1024.72 1024.60 1024.45 1024.27 1024.06 1023.83 1023.56 1023.27 1022.92 1022.53 1022.08 1021.55 1020.96 1020.29 1019.54 1018.73 1017.86 1016.96 1016.02 1015.09 1014.17 1013.27 1012.41 1011.60 1010.83 1010.10
1021.35 1022.15 1022.87 1023.52 1024.07 1024.54 1024.91 1025.19 1025.38 1025.48 1025.50 1025.46 1025.36 1025.21 1025.03 1024.81 1024.57 1024.31 1024.02 1023.69 1023.32 1022.90 1022.42 1021.88 1021.25 1020.55 1019.78 1018.93 1018.02 1017.07 1016.09 1015.10 1014.13 1013.18 1012.27 1011.41 1010.59 1009.82
1022.21 1022.97 1023.67 1024.29 1024.82 1025.27 1025.62 1025.89 1026.06 1026.15 1026.16 1026.10 1025.98 1025.81 1025.60 1025.36 1025.08 1024.78 1024.45 1024.10 1023.70 1023.25 1022.75 1022.17 1021.53 1020.80 1020.00 1019.12 1018.17 1017.18 1016.17 1015.14 1014.12 1013.13 1012.17 1011.27 1010.41 1009.59
1023.07 1023.78 1024.43 1025.01 1025.51 1025.92 1026.26 1026.51 1026.67 1026.75 1026.76 1026.69 1026.56 1026.37 1026.14 1025.86 1025.56 1025.23 1024.87 1024.48 1024.06 1023.58 1023.05 1022.46 1021.80 1021.06 1020.24 1019.34 1018.38 1017.36 1016.32 1015.26 1014.20 1013.17 1012.18 1011.23 1010.32 1009.45
1023.90 1024.55 1025.14 1025.66 1026.11 1026.49 1026.80 1027.03 1027.19 1027.27 1027.27 1027.20 1027.06 1026.86 1026.61 1026.32 1025.99 1025.63 1025.25 1024.84 1024.39 1023.90 1023.37 1022.77 1022.10 1021.36 1020.53 1019.63 1018.67 1017.64 1016.58 1015.51 1014.43 1013.37 1012.33 1011.34 1010.38 1009.46
1024.66 1025.24 1025.75 1026.21 1026.61 1026.95 1027.23 1027.45 1027.60 1027.68 1027.68 1027.62 1027.48 1027.28 1027.02 1026.71 1026.37 1026.00 1025.60 1025.18 1024.72 1024.23 1023.70 1023.11 1022.46 1021.73 1020.92 1020.04 1019.08 1018.06 1017.00 1015.91 1014.81 1013.72 1012.66 1011.62 1010.62 1009.65
1025.34 1025.84 1026.28 1026.67 1027.02 1027.31 1027.57 1027.77 1027.91 1027.99 1028.01 1027.95 1027.81 1027.62 1027.36 1027.05 1026.70 1026.33 1025.93 1025.50 1025.06 1024.58 1024.07 1023.51 1022.89 1022.19 1021.42 1020.56 1019.62 1018.62 1017.56 1016.46 1015.35 1014.23 1013.13 1012.06 1011.01 1009.99
Thickness
5606 5602 5598 5594 5590 5587 5582 5576 5570 5565 5562 5558 5552 5548 5543 5538 5533 5527 5522 5517 5511 5505 5499 5493 5485 5478 5471 5463 5455 5448 5442 5436 5430 5425 5421 5416 5413 5409
5602 5598 5594 5591 5586 5582 5577 5571 5567 5561 5557 5552 5545 5540 5535 5530 5525 5519 5514 5509 5502 5496 5490 5483 5475 5467 5459 5451 5443 5436 5430 5425 5419 5414 5409 5405 5400 5395
5599 5595 5591 5587 5582 5577 5571 5566 5560 5555 5550 5545 5538 5533 5527 5522 5516 5511 5505 5500 5494 5487 5480 5472 5464 5456 5447 5439 5432 5425 5419 5413 5407 5402 5397 5392 5387 5382
5596 5592 5587 5582 5578 5572 5567 5561 5555 5550 5544 5538 5531 5524 5519 5513 5507 5502 5496 5490 5484 5476 5469 5461 5453 5444 5436 5428 5421 5414 5408 5402 5396 5390 5385 5380 5375 5370
5594 5589 5584 5579 5573 5568 5562 5556 5550 5544 5537 5531 5524 5517 5510 5504 5498 5492 5486 5480 5473 5466 5458 5449 5441 5433 5424 5417 5410 5404 5397 5392 5386 5380 5373 5367 5362 5357
5590 5586 5581 5576 5571 5564 5557 5551 5544 5537 5530 5523 5516 5509 5502 5495 5489 5483 5477 5470 5462 5454 5446 5438 5430 5421 5413 5406 5399 5393 5387 5380 5374 5367 5361 5355 5349 5344
5585 5581 5576 5572 5567 5560 5554 5546 5539 5531 5523 5516 5509 5501 5494 5486 5480 5473 5466 5459 5452 5443 5435 5428 5420 5412 5403 5395 5388 5381 5375 5369 5362 5355 5349 5343 5337 5332
5579 5574 5570 5564 5559 5554 5548 5542 5535 5526 5518 5510 5502 5494 5487 5479 5472 5463 5455 5448 5442 5435 5424 5417 5409 5400 5392 5384 5377 5370 5364 5357 5350 5344 5337 5331 5326 5321
5574 5569 5563 5557 5552 5546 5539 5533 5527 5521 5514 5506 5496 5488 5480 5473 5464 5455 5445 5436 5429 5421 5412 5405 5398 5389 5382 5374 5366 5359 5352 5345 5339 5332 5326 5321 5315 5310
5568 5563 5557 5550 5544 5538 5530 5523 5516 5510 5504 5498 5490 5482 5473 5464 5455 5446 5436 5426 5417 5408 5400 5391 5385 5378 5372 5364 5356 5348 5341 5334 5328 5322 5316 5311 5306 5301
5559 5555 5550 5544 5538 5530 5523 5515 5506 5499 5493 5486 5479 5471 5463 5455 5445 5435 5425 5415 5405 5397 5387 5378 5372 5366 5360 5353 5345 5337 5330 5323 5317 5311 5306 5301 5297 5294
5550 5546 5542 5537 5530 5523 5515 5507 5498 5490 5482 5475 5467 5459 5451 5442 5434 5425 5415 5404 5394 5385 5377 5367 5359 5351 5347 5343 5335 5327 5320 5313 5307 5301 5297 5293 5289 5286
5543 5537 5533 5528 5522 5514 5508 5501 5493 5483 5473 5465 5455 5446 5438 5430 5421 5413 5404 5394 5383 5373 5365 5355 5346 5337 5329 5326 5324 5317 5310 5304 5298 5293 5289 5285 5282 5280
5537 5530 5525 5519 5512 5505 5498 5491 5483 5473 5463 5454 5444 5436 5427 5418 5410 5402 5393 5384 5374 5364 5355 5345 5334 5326 5317 5312 5310 5308 5301 5296 5291 5286 5282 5279 5276 5273
5529 5523 5517 5509 5502 5494 5488 5480 5471 5462 5453 5444 5435 5426 5417 5408 5400 5391 5382 5374 5365 5356 5346 5336 5326 5317 5308 5301 5298 5295 5291 5289 5284 5279 5276 5274 5272 5269
5518 5512 5505 5497 5490 5483 5475 5468 5460 5453 5444 5435 5425 5416 5407 5399 5390 5381 5371 5362 5353 5344 5336 5327 5318 5310 5302 5296 5290 5285 5281 5277 5277 5274 5271 5270 5269 5266
5509 5500 5492 5484 5477 5470 5463 5456 5449 5442 5433 5424 5416 5407 5398 5390 5381 5372 5362 5352 5341 5332 5325 5318 5311 5304 5297 5291 5284 5280 5276 5272 5270 5267 5266 5266 5267 5264
5502 5492 5483 5476 5469 5462 5454 5445 5438 5431 5424 5415 5407 5398 5389 5380 5371 5361 5352 5341 5331 5323 5315 5308 5301 5296 5290 5286 5282 5276 5271 5267 5266 5263 5260 5260 5263 5264
5492 5484 5476 5468 5461 5453 5445 5438 5430 5422 5415 5406 5398 5389 5380 5371 5362 5352 5342 5332 5323 5314 5306 5299 5291 5284 5278 5273 5273 5272 5266 5263 5261 5260 5258 5256 5257 5260
5483 5476 5468 5460 5453 5445 5437 5430 5422 5414 5406 5397 5389 5380 5371 5362 5353 5343 5333 5323 5314 5305 5297 5291 5283 5276 5269 5264 5262 5263 5262 5259 5257 5256 5256 5256 5257 5260
5473 5467 5460 5453 5446 5438 5430 5422 5414 5406 5398 5389 5380 5371 5362 5353 5344 5334 5324 5317 5307 5297 5289 5283 5278 5272 5265 5259 5254 5256 5258 5257 5254 5253 5254 5254 5256 5259
5466 5459 5452 5445 5438 5431 5423 5415 5407 5398 5390 5381 5372 5363 5354 5345 5336 5326 5316 5307 5298 5290 5283 5278 5274 5268 5261 5254 5250 5249 5251 5254 5254 5254 5253 5252 5250 5252
5458 5451 5444 5438 5431 5424 5416 5408 5400 5391 5382 5374 5365 5356 5347 5337 5328 5319 5309 5300 5292 5284 5278 5273 5268 5262 5255 5250 5245 5244 5245 5247 5249 5250 5253 5254 5253 5253